Date,TemperatureHighF,TemperatureAvgF,TemperatureLowF,DewpointHighF,DewpointAvgF,DewpointLowF,HumidityHigh,HumidityAvg,HumidityLow,PressureMaxIn,PressureMinIn,WindSpeedMaxMPH,WindSpeedAvgMPH,GustSpeedMaxMPH,PrecipitationSumIn
2013-4-1,35,28,21,-100,-100,-100,0,0,100,0.00,40.00,0,-999,0,0.00
2013-4-2,42,30,21,-100,-100,-100,0,0,100,0.00,40.00,0,-999,0,0.00
2013-4-3,56,40,26,-100,-100,-100,0,0,100,0.00,40.00,0,-999,0,0.00
2013-4-4,52,42,31,-100,-100,-100,0,0,100,0.00,40.00,0,-999,0,0.00
2013-4-5,47,38,26,-100,-100,-100,0,0,100,0.00,40.00,0,-999,0,0.00
2013-4-6,60,47,35,-100,-100,-100,0,0,100,0.00,40.00,0,-999,0,0.00
2013-4-7,52,42,32,-100,-100,-100,0,0,100,0.00,40.00,0,-999,0,0.00
2013-4-8,56,49,43,-100,-100,-100,0,0,100,0.00,40.00,0,-999,0,0.00
2013-4-9,42,35,31,-100,-100,-100,0,0,100,0.00,40.00,0,-999,0,0.00
2013-4-10,35,32,31,-100,-100,-100,0,0,100,0.00,40.00,0,-999,0,0.00
2013-4-11,35,33,32,-100,-100,-100,0,0,100,0.00,40.00,0,-999,0,0.00
2013-4-12,35,32,29,-100,-100,-100,0,0,100,0.00,40.00,0,-999,0,0.00
2013-4-13,42,32,26,-100,-100,-100,0,0,100,0.00,40.00,0,-999,0,0.00
2013-4-14,39,36,32,-100,-100,-100,0,0,100,0.00,40.00,0,-999,0,0.00
2013-4-15,42,36,31,-100,-100,-100,0,0,100,0.00,40.00,0,-999,0,0.00
2013-4-16,43,36,31,-100,-100,-100,0,0,100,0.00,40.00,0,-999,0,0.00
2013-4-17,42,36,32,-100,-100,-100,0,0,100,0.00,40.00,0,-999,0,0.00
2013-4-18,32,32,31,-100,-100,-100,0,0,100,0.00,40.00,0,-999,0,0.00
2013-4-19,35,29,26,-100,-100,-100,0,0,100,0.00,40.00,0,-999,0,0.00
2013-4-20,39,29,21,-100,-100,-100,0,0,100,0.00,40.00,0,-999,0,0.00
2013-4-21,52,44,37,-100,-100,-100,0,0,100,0.00,40.00,0,-999,0,0.00
2013-4-22,35,33,31,-100,-100,-100,0,0,100,0.00,40.00,0,-999,0,0.00
2013-4-23,35,29,24,-100,-100,-100,0,0,100,0.00,40.00,0,-999,0,0.00
2013-4-24,50,38,26,-100,-100,-100,0,0,100,0.00,40.00,0,-999,0,0.00
2013-4-25,63,45,29,-100,-100,-100,0,0,100,0.00,40.00,0,-999,0,0.00
2013-4-26,79,68,52,-100,-100,-100,0,0,100,0.00,40.00,0,-999,0,0.00
2013-4-27,84,66,42,-100,-100,-100,0,0,100,0.00,40.00,0,-999,0,0.00
2013-4-28,92,74,52,-100,-100,-100,0,0,100,0.00,40.00,0,-999,0,0.00
2013-4-29,84,62,47,-100,-100,-100,0,0,100,0.00,40.00,0,-999,0,0.00
2013-4-30,79,72,60,-100,-100,-100,0,0,100,0.00,40.00,0,-999,0,0.00